This is the latest recevied weather packets stored in our database for station/object W4EDL-13. If no packets are shown the sender has not sent any weather packets the latest 10 day(s).
| Time | Temp. | Humidity | Pressure | Rain* | Wind** | Luminosity | Snow |
|---|---|---|---|---|---|---|---|
| 1778021367 | 25.56° C | 50% | 1005.9 hPa | - | - | - | - |
| 1778020766 | 25.56° C | 49% | 1006.3 hPa | - | - | - | - |
| 1778020166 | 27.22° C | 47% | 1006.3 hPa | - | - | - | - |
| 1778019565 | 26.67° C | 48% | 1006.3 hPa | - | - | - | - |
| 1778018964 | 27.22° C | 48% | 1006.3 hPa | - | - | - | - |
| 1778018364 | 27.78° C | 46% | 1006.3 hPa | - | - | - | - |
| 1778017763 | 27.78° C | 44% | 1006.3 hPa | - | - | - | - |
| 1778017163 | 28.33° C | 41% | 1006.3 hPa | - | - | - | - |
| 1778016562 | 29.44° C | 42% | 1006.3 hPa | - | - | - | - |
| 1778015962 | 28.89° C | 44% | 1005.9 hPa | - | - | - | - |
| 1778015361 | 28.89° C | 44% | 1005.9 hPa | - | - | - | - |
| 1778014760 | 29.44° C | 43% | 1006.3 hPa | - | - | - | - |
| 1778014160 | 28.33° C | 43% | 1006.3 hPa | - | - | - | - |
| 1778013559 | 28.33° C | 41% | 1006.3 hPa | - | - | - | - |
| 1778012958 | 30° C | 41% | 1006.3 hPa | - | - | - | - |
| 1778012358 | 29.44° C | 43% | 1006.3 hPa | - | - | - | - |
| 1778011757 | 30° C | 40% | 1006.6 hPa | - | - | - | - |
| 1778011157 | 28.89° C | 42% | 1006.6 hPa | - | - | - | - |
| 1778010556 | 28.89° C | 42% | 1006.6 hPa | - | - | - | - |
| 1778010556 | 28.89° C | 42% | 1006.6 hPa | - | - | - | - |
| 1778009956 | 29.44° C | 42% | 1007.3 hPa | - | - | - | - |
| 1778009355 | 30° C | 39% | 1007.3 hPa | - | - | - | - |
| 1778008755 | 30° C | 39% | 1007.3 hPa | - | - | - | - |
| 1778008154 | 30.56° C | 41% | 1007.3 hPa | - | - | - | - |
| 1778007553 | 31.11° C | 39% | 1007.3 hPa | - | - | - | - |
* Rain since midnight (hover to see other rain measurements)
** Current wind speed in m/s (hover to see current wind gust speed)